Location: Cypress Hills Dark-Sky Preserve - CHICO
(49.6176°N, 110.2634°W)
Time: 00:24:01
(UTC-06:00)

Amateur Radio Satellites - All Passes

Search period start: 01 October 2014 23:54
Search period end: 02 October 2014 23:54
Location: Cypress Hills Dark-Sky Preserve - CHICO, 49.6176°N, 110.2634°W

Satellite Date Start Highest point End Downlink Frequencies (MHz)
Time Altitude Azimuth
UOSAT-12 02 Oct 00:03:43 00:07:31 23° 332° (NNW) 00:11:21 437.025 FM, 437.400 FM
ZACube-1 02 Oct 00:19:08 00:21:28 14° 273° (W) 00:23:50 437.345 MHz
RS-15 02 Oct 00:44:51 00:48:37 12° 92° (E) 00:52:22 29.354 - 29.394 USB, Beacon 29.352 USB
ISS 02 Oct 01:02:30 01:05:50 66° 351° (N) 01:09:09 145.800 FM
SO-50 02 Oct 01:25:34 01:28:33 16° 17° (NNE) 01:31:34 436.795 FM
Oscar 19 02 Oct 01:27:47 01:29:08 11° 84° (E) 01:30:28 437.125 CW, 437.150 USB
KITSAT 1 02 Oct 01:44:09 01:52:14 69° 47° (NE) 02:00:17 435.175 FM
UOSAT-12 02 Oct 01:47:00 01:49:20 13° 356° (N) 01:51:40 437.025 FM, 437.400 FM
JAS-1B 02 Oct 01:51:09 01:53:23 12° 85° (E) 01:55:39 435.800 - 435.900 CW/SSB
Oscar 16 02 Oct 02:06:47 02:11:02 25° 92° (E) 02:15:15 437.025 USB, Beacon 2401.1428
AO-Echo 02 Oct 02:09:26 02:12:06 14° 87° (E) 02:14:47 ?
AO-27 02 Oct 02:19:08 02:22:01 15° 87° (E) 02:24:52 436.795 MHz FM
ISS 02 Oct 02:39:24 02:42:44 68° 11° (N) 02:46:03 145.800 FM
RS-15 02 Oct 02:47:38 02:58:10 55° 116° (ESE) 03:08:38 29.354 - 29.394 USB, Beacon 29.352 USB
Gurwin Techsat 1B 02 Oct 02:49:30 02:52:18 14° 86° (E) 02:55:05 435.225 FM
OPAL 02 Oct 02:57:38 02:57:55 10° 44° (NE) 02:58:12 ?
Oscar 19 02 Oct 03:04:14 03:09:25 73° 103° (ESE) 03:14:32 437.125 CW, 437.150 USB
SO-50 02 Oct 03:05:47 03:10:20 41° 40° (NE) 03:14:56 436.795 FM
TMSAT-1 02 Oct 03:16:51 03:20:31 19° 89° (E) 03:24:09 436.925 FM
ITAMSAT 1 02 Oct 03:18:20 03:23:21 44° 99° (E) 03:28:20 435.822 SSB
Uribyol 2 02 Oct 03:18:56 03:24:00 47° 99° (E) 03:29:02 436.500 FM
UOSAT-12 02 Oct 03:28:04 03:31:19 18° 20° (NNE) 03:34:34 437.025 FM, 437.400 FM
JAS-1B 02 Oct 03:39:23 03:45:05 80° 105° (ESE) 03:51:09 435.800 - 435.900 CW/SSB
KITSAT 1 02 Oct 03:40:02 03:47:12 36° 250° (WSW) 03:54:20 435.175 FM
AO-7 02 Oct 03:45:07 03:47:36 11° 80° (E) 03:50:05 29.400 - 29.500 MHz
Oscar 16 02 Oct 03:45:41 03:50:42 52° 292° (WNW) 03:55:40 437.025 USB, Beacon 2401.1428
AO-Echo 02 Oct 03:46:30 03:51:31 89° 287° (WNW) 03:56:41 ?
AO-27 02 Oct 03:57:00 04:02:16 89° 289° (WNW) 04:07:31 436.795 MHz FM
ISS 02 Oct 04:16:11 04:19:21 41° 210° (SSW) 04:22:30 145.800 FM
Gurwin Techsat 1B 02 Oct 04:27:42 04:33:04 87° 105° (ESE) 04:38:23 435.225 FM
OPAL 02 Oct 04:30:39 04:35:38 47° 64° (ENE) 04:40:37 ?
Oscar 19 02 Oct 04:44:32 04:48:14 20° 303° (WNW) 04:51:56 437.125 CW, 437.150 USB
SO-50 02 Oct 04:46:26 04:50:56 40° 240° (WSW) 04:55:28 436.795 FM
MaSat-1 02 Oct 04:52:09 04:53:58 12° 102° (ESE) 04:55:45 437.345 MHz
TMSAT-1 02 Oct 04:55:42 05:01:01 74° 288° (WNW) 05:06:18 436.925 FM
ITAMSAT 1 02 Oct 04:58:07 05:02:43 32° 298° (WNW) 05:07:17 435.822 SSB
Uribyol 2 02 Oct 04:58:47 05:03:17 30° 298° (WNW) 05:07:47 436.500 FM
RS-15 02 Oct 04:59:44 05:10:32 60° 322° (NW) 05:21:25 29.354 - 29.394 USB, Beacon 29.352 USB
UOSAT-12 02 Oct 05:07:53 05:12:32 51° 43° (NE) 05:17:07 437.025 FM, 437.400 FM
Uosat F 02 Oct 05:09:13 05:13:39 30° 95° (E) 05:18:04 435.120 FM
AO-Echo 02 Oct 05:26:39 05:29:40 16° 304° (NW) 05:32:43 ?
Oscar 16 02 Oct 05:28:13 05:28:56 10° 312° (NW) 05:29:39 437.025 USB, Beacon 2401.1428
JAS-1B 02 Oct 05:31:17 05:35:14 20° 306° (NW) 05:39:16 435.800 - 435.900 CW/SSB
AO-7 02 Oct 05:34:14 05:42:23 55° 102° (ESE) 05:50:28 29.400 - 29.500 MHz
STRAND 1 02 Oct 05:36:07 05:39:22 17° 55° (NE) 05:42:39 ?
AO-27 02 Oct 05:37:47 05:41:06 17° 306° (NW) 05:44:24 436.795 MHz FM
Gurwin Techsat 1B 02 Oct 06:08:52 06:12:22 18° 305° (NW) 06:15:51 435.225 FM
OPAL 02 Oct 06:10:09 06:14:41 30° 263° (W) 06:19:15 ?
MaSat-1 02 Oct 06:24:58 06:29:47 78° 119° (ESE) 06:34:16 437.345 MHz
TMSAT-1 02 Oct 06:37:17 06:40:05 15° 308° (NW) 06:42:53 436.925 FM
JAS-2 02 Oct 06:43:04 06:49:28 49° 99° (E) 06:56:33 435.800 - 435.900 CW/SSB, 435.910 FM
Uosat F 02 Oct 06:47:49 06:52:35 43° 294° (WNW) 06:57:19 435.120 FM
UOSAT-12 02 Oct 06:48:24 06:52:30 29° 243° (WSW) 06:56:31 437.025 FM, 437.400 FM
Hamsat 02 Oct 06:50:13 06:54:09 37° 97° (E) 06:58:01 145.90 MHz
STRAND 1 02 Oct 07:12:48 07:17:54 87° 254° (WSW) 07:23:04 ?
RS-15 02 Oct 07:15:36 07:25:31 37° 355° (N) 07:35:37 29.354 - 29.394 USB, Beacon 29.352 USB
AO-7 02 Oct 07:27:21 07:35:02 44° 304° (NW) 07:42:43 29.400 - 29.500 MHz
MaSat-1 02 Oct 08:03:07 08:06:40 21° 317° (NW) 08:10:01 437.345 MHz
SO-67 02 Oct 08:11:21 08:14:38 38° 98° (E) 08:17:52 435.3500 MHz FM
Hamsat 02 Oct 08:26:28 08:29:59 26° 295° (WNW) 08:33:27 145.90 MHz
JAS-2 02 Oct 08:28:27 08:34:27 41° 296° (WNW) 08:41:08 435.800 - 435.900 CW/SSB, 435.910 FM
HO-68 02 Oct 08:37:01 08:39:28 12° 82° (E) 08:41:54 435.675 MHz FM
PCSat 02 Oct 08:40:35 08:42:57 13° 103° (ESE) 08:45:18 145.825 MHz
STRAND 1 02 Oct 08:55:24 08:57:53 14° 274° (W) 09:00:23 ?
AO-7 02 Oct 09:21:35 09:25:47 15° 328° (NNW) 09:29:59 29.400 - 29.500 MHz
RS-15 02 Oct 09:30:29 09:41:03 48° 28° (NNE) 09:51:55 29.354 - 29.394 USB, Beacon 29.352 USB
UKube-1 02 Oct 09:44:35 09:46:15 12° 87° (E) 09:47:56 145.840 MHz, 145.915 MHz
SO-67 02 Oct 09:45:02 09:47:24 18° 296° (WNW) 09:49:45 435.3500 MHz FM
Sapphire 02 Oct 09:54:55 10:00:03 45° 116° (ESE) 10:05:12 437.095 MHz 1200 baud AX-25 AFSK
JAS-2 02 Oct 10:17:17 10:18:03 10° 316° (NW) 10:18:51 435.800 - 435.900 CW/SSB, 435.910 FM
PCSat 02 Oct 10:20:02 10:25:25 74° 122° (ESE) 10:30:51 145.825 MHz
HO-68 02 Oct 10:21:36 10:28:43 60° 102° (ESE) 10:35:48 435.675 MHz FM
ZACube-1 02 Oct 10:26:44 10:28:47 13° 86° (E) 10:30:49 437.345 MHz
Oscar 11 02 Oct 10:47:58 10:52:05 41° 98° (E) 10:56:10 145.825 FM, Beacon 2401.500 USB
FUNcube-1 02 Oct 11:15:54 11:20:08 36° 96° (E) 11:24:15 145.950 - 145.970 MHz USB
UKube-1 02 Oct 11:18:41 11:23:05 86° 286° (WNW) 11:27:27 145.840 MHz, 145.915 MHz
Sapphire 02 Oct 11:38:30 11:43:35 40° 317° (NW) 11:48:42 437.095 MHz 1200 baud AX-25 AFSK
RS-15 02 Oct 11:43:21 11:54:25 79° 236° (SW) 12:05:55 29.354 - 29.394 USB, Beacon 29.352 USB
Oscar 16 02 Oct 11:53:05 11:54:32 11° 49° (NE) 11:55:59 437.025 USB, Beacon 2401.1428
ZACube-1 02 Oct 12:01:15 12:05:52 85° 285° (WNW) 12:10:21 437.345 MHz
PCSat 02 Oct 12:04:42 12:09:22 28° 324° (NW) 12:14:04 145.825 MHz
HO-68 02 Oct 12:09:45 12:16:08 36° 303° (WNW) 12:22:31 435.675 MHz FM
Oscar 11 02 Oct 12:24:33 12:28:06 25° 296° (WNW) 12:31:38 145.825 FM, Beacon 2401.500 USB
JAS-1B 02 Oct 12:40:36 12:45:43 23° 56° (ENE) 12:50:21 435.800 - 435.900 CW/SSB
Oscar 19 02 Oct 12:47:24 12:51:43 27° 61° (ENE) 12:56:02 437.125 CW, 437.150 USB
FUNcube-1 02 Oct 12:52:26 12:56:26 30° 295° (WNW) 13:00:21 145.950 - 145.970 MHz USB
UKube-1 02 Oct 12:56:36 12:58:36 13° 305° (NW) 13:00:37 145.840 MHz, 145.915 MHz
AO-7 02 Oct 13:01:46 13:03:56 11° 24° (NNE) 13:06:05 29.400 - 29.500 MHz
ITAMSAT 1 02 Oct 13:03:33 13:07:03 19° 56° (NE) 13:10:35 435.822 SSB
Uribyol 2 02 Oct 13:03:51 13:07:31 20° 56° (ENE) 13:11:11 436.500 FM
Sapphire 02 Oct 13:25:21 13:28:33 16° 341° (NNW) 13:31:44 437.095 MHz 1200 baud AX-25 AFSK
AO-Echo 02 Oct 13:26:26 13:30:22 27° 62° (ENE) 13:34:23 ?
Oscar 16 02 Oct 13:27:46 13:32:50 56° 69° (ENE) 13:37:56 437.025 USB, Beacon 2401.1428
ZACube-1 02 Oct 13:39:18 13:41:32 14° 305° (NW) 13:43:45 437.345 MHz
AO-27 02 Oct 13:40:55 13:45:34 35° 64° (ENE) 13:50:16 436.795 MHz FM
Saudisat 1A 02 Oct 13:48:33 13:51:46 20° 114° (ESE) 13:55:00 436.775 MHz
PCSat 02 Oct 13:52:04 13:54:40 13° 349° (N) 13:57:17 145.825 MHz
RS-15 02 Oct 13:56:59 14:05:02 24° 259° (W) 14:13:20 29.354 - 29.394 USB, Beacon 29.352 USB
HO-68 02 Oct 14:00:32 14:01:51 11° 326° (NNW) 14:03:10 435.675 MHz FM
Gurwin Techsat 1B 02 Oct 14:14:10 14:18:55 35° 64° (ENE) 14:23:42 435.225 FM
Oscar 19 02 Oct 14:25:44 14:30:48 52° 260° (W) 14:35:53 437.125 CW, 437.150 USB
JAS-1B 02 Oct 14:28:36 14:35:56 81° 255° (WSW) 14:42:08 435.800 - 435.900 CW/SSB
MaSat-1 02 Oct 14:36:04 14:39:34 46° 53° (NE) 14:42:34 437.345 MHz
ITAMSAT 1 02 Oct 14:40:45 14:45:56 82° 255° (WSW) 14:51:11 435.822 SSB
Uribyol 2 02 Oct 14:41:14 14:46:25 78° 256° (WSW) 14:51:40 436.500 FM
TMSAT-1 02 Oct 14:41:31 14:46:30 43° 66° (ENE) 14:51:30 436.925 FM
AO-7 02 Oct 14:47:12 14:54:07 31° 49° (NE) 15:01:02 29.400 - 29.500 MHz
Uosat F 02 Oct 14:51:44 14:53:42 12° 51° (NE) 14:55:39 435.120 FM
Oscar 10/S400 02 Oct 15:00:50 15:13:21 20° 144° (SE) 15:27:59 145.825 - 145.975 CW/USB, Beacon 145.810 USB
AO-Echo 02 Oct 15:04:32 15:08:59 43° 262° (W) 15:13:32 ?
Oscar 16 02 Oct 15:08:23 15:12:32 24° 268° (W) 15:16:43 437.025 USB, Beacon 2401.1428
Sapphire 02 Oct 15:11:56 15:14:22 13° 8° (N) 15:16:48 437.095 MHz 1200 baud AX-25 AFSK
AO-27 02 Oct 15:20:13 15:25:03 39° 263° (W) 15:29:56 436.795 MHz FM
Saudisat 1A 02 Oct 15:26:33 15:30:56 65° 313° (NW) 15:35:21 436.775 MHz
PCSat 02 Oct 15:37:33 15:40:30 15° 16° (NNE) 15:43:27 145.825 MHz
Gurwin Techsat 1B 02 Oct 15:53:51 15:58:50 41° 263° (W) 16:03:51 435.225 FM
MaSat-1 02 Oct 16:13:43 16:15:25 13° 257° (WSW) 16:17:00 437.345 MHz
KITSAT 1 02 Oct 16:19:21 16:25:16 23° 104° (ESE) 16:31:12 435.175 FM
TMSAT-1 02 Oct 16:21:50 16:26:33 32° 265° (W) 16:31:17 436.925 FM
JAS-1B 02 Oct 16:23:24 16:27:22 16° 272° (W) 16:31:04 435.800 - 435.900 CW/SSB
ITAMSAT 1 02 Oct 16:23:59 16:26:17 13° 274° (W) 16:28:35 435.822 SSB
Uribyol 2 02 Oct 16:24:49 16:26:47 12° 275° (W) 16:28:46 436.500 FM
Uosat F 02 Oct 16:26:37 16:31:33 65° 71° (ENE) 16:36:33 435.120 FM
AO-7 02 Oct 16:37:51 16:46:10 82° 251° (WSW) 16:54:31 29.400 - 29.500 MHz
Sapphire 02 Oct 16:55:18 16:59:47 25° 34° (NNE) 17:04:16 437.095 MHz 1200 baud AX-25 AFSK
JAS-2 02 Oct 17:01:37 17:06:07 30° 60° (ENE) 17:10:56 435.800 - 435.900 CW/SSB, 435.910 FM
Saudisat 1A 02 Oct 17:08:12 17:11:20 19° 335° (NNW) 17:14:28 436.775 MHz
PCSat 02 Oct 17:20:38 17:25:36 35° 40° (NE) 17:30:33 145.825 MHz
Hamsat 02 Oct 17:47:27 17:51:35 47° 70° (ENE) 17:55:43 145.90 MHz
Uosat F 02 Oct 18:07:14 18:10:49 20° 269° (W) 18:14:25 435.120 FM
KITSAT 1 02 Oct 18:11:30 18:19:36 86° 125° (SE) 18:27:45 435.175 FM
OPAL 02 Oct 18:14:50 18:19:50 50° 102° (ESE) 18:24:43 ?
AO-7 02 Oct 18:34:27 18:40:14 20° 272° (W) 18:46:03 29.400 - 29.500 MHz
Sapphire 02 Oct 18:38:26 18:43:55 87° 236° (SW) 18:49:21 437.095 MHz 1200 baud AX-25 AFSK
JAS-2 02 Oct 18:46:01 18:51:02 47° 262° (W) 18:56:26 435.800 - 435.900 CW/SSB, 435.910 FM
SO-67 02 Oct 18:48:29 18:51:25 26° 68° (ENE) 18:54:22 435.3500 MHz FM
Saudisat 1A 02 Oct 18:51:01 18:52:37 12° 360° (N) 18:54:13 436.775 MHz
PCSat 02 Oct 19:03:59 19:09:18 55° 242° (WSW) 19:14:34 145.825 MHz
SO-50 02 Oct 19:05:56 19:09:32 24° 115° (ESE) 19:13:13 436.795 FM
HO-68 02 Oct 19:10:12 19:14:54 19° 45° (NE) 19:19:36 435.675 MHz FM
STRAND 1 02 Oct 19:19:34 19:23:39 23° 92° (E) 19:27:42 ?
Hamsat 02 Oct 19:24:29 19:27:47 21° 268° (W) 19:31:04 145.90 MHz
OPAL 02 Oct 19:54:10 19:58:29 28° 302° (WNW) 20:02:43 ?
KITSAT 1 02 Oct 20:08:34 20:15:56 37° 330° (NNW) 20:23:20 435.175 FM
SO-67 02 Oct 20:21:34 20:24:25 24° 266° (W) 20:27:17 435.3500 MHz FM
Sapphire 02 Oct 20:23:20 20:26:34 16° 255° (WSW) 20:29:47 437.095 MHz 1200 baud AX-25 AFSK
Saudisat 1A 02 Oct 20:30:49 20:33:55 18° 24° (NNE) 20:37:01 436.775 MHz
UKube-1 02 Oct 20:43:38 20:46:46 20° 60° (ENE) 20:49:55 145.840 MHz, 145.915 MHz
SO-50 02 Oct 20:45:17 20:49:46 58° 315° (NW) 20:54:23 436.795 FM
HO-68 02 Oct 20:54:21 21:01:25 69° 67° (ENE) 21:08:33 435.675 MHz FM
STRAND 1 02 Oct 20:58:09 21:03:12 57° 291° (WNW) 21:08:14 ?
UOSAT-12 02 Oct 21:03:16 21:07:20 31° 117° (ESE) 21:11:28 437.025 FM, 437.400 FM
ZACube-1 02 Oct 21:26:55 21:30:12 20° 60° (ENE) 21:33:30 437.345 MHz
Oscar 11 02 Oct 21:46:58 21:51:14 56° 71° (ENE) 21:55:31 145.825 FM, Beacon 2401.500 USB
KITSAT 1 02 Oct 22:07:31 22:13:55 25° 359° (N) 22:20:18 435.175 FM
Saudisat 1A 02 Oct 22:09:56 22:14:21 62° 46° (NE) 22:18:43 436.775 MHz
FUNcube-1 02 Oct 22:16:05 22:20:30 49° 70° (ENE) 22:24:59 145.950 - 145.970 MHz USB
UKube-1 02 Oct 22:18:21 22:22:37 56° 259° (WSW) 22:26:55 145.840 MHz, 145.915 MHz
SO-50 02 Oct 22:28:01 22:31:17 19° 338° (NNW) 22:34:37 436.795 FM
ISS 02 Oct 22:37:10 22:40:08 31° 146° (SSE) 22:43:07 145.800 FM
STRAND 1 02 Oct 22:39:51 22:41:22 11° 311° (NW) 22:42:53 ?
UOSAT-12 02 Oct 22:42:47 22:47:20 49° 317° (NW) 22:51:57 437.025 FM, 437.400 FM
HO-68 02 Oct 22:43:42 22:49:43 29° 268° (W) 22:55:46 435.675 MHz FM
ZACube-1 02 Oct 23:01:37 23:06:09 64° 259° (W) 23:10:47 437.345 MHz
Oscar 11 02 Oct 23:24:44 23:27:46 18° 270° (W) 23:30:48 145.825 FM, Beacon 2401.500 USB
